Location: Tehachapi Municipal Airport
(35.1300°N, 118.4400°W)
Time: 02:59:42
(UTC-07:00)

BREEZE M DEB (TANK) - Visible Passes

Search period start: 17 April 2014 00:00
Search period end: 27 April 2014 00:00
Orbit: 295 x 12255 km, 49.5° (Epoch: 16 April)

Date Brightness Start Highest point End Pass type
(mag) Time Alt. Az. Time Alt. Az. Time Alt. Az.
17 Apr 7.4 00:00:00 61° N 00:00:20 61° N 01:34:57 10° E visible
17 Apr 8.2 03:54:43 10° NW 04:51:46 82° WSW 06:23:53 10° SSE visible
17 Apr 7.2 23:17:54 10° W 23:33:43 61° N 01:01:37 10° E visible
18 Apr 8.1 03:29:28 10° NW 04:23:23 86° SW 05:58:28 10° SSE visible
18 Apr 7.0 22:53:14 10° W 23:07:20 61° N 00:27:35 10° E visible
19 Apr 8.1 03:04:15 10° NW 03:54:42 89° NE 05:32:41 10° SSE visible
19 Apr 6.8 22:28:34 10° W 22:41:09 62° N 23:53:16 10° ENE visible
20 Apr 8.0 02:39:02 10° NW 03:25:48 85° NE 05:06:30 10° SE visible
20 Apr 6.6 22:03:52 10° W 22:15:08 63° NNW 23:19:09 10° ENE visible
21 Apr 8.0 02:13:48 10° WNW 02:56:44 81° NE 04:39:53 10° SE visible
21 Apr 6.3 21:39:09 10° WSW 21:49:17 66° NNW 22:45:40 10° ENE visible
22 Apr 8.0 01:48:35 10° WNW 02:27:39 78° NE 04:12:47 10° SE visible
22 Apr 6.1 21:14:26 10° WSW 21:23:33 69° NNW 22:13:03 10° ENE visible
23 Apr 7.9 01:23:21 10° WNW 01:58:38 74° NE 03:45:07 10° SE visible
23 Apr 8.5 05:39:16 10° NW 06:36:22 45° WSW 07:54:45 10° SSW visible
23 Apr 5.8 20:49:42 10° WSW 20:57:56 73° NNW 21:41:20 10° ENE visible
24 Apr 7.9 00:58:05 10° WNW 01:29:46 71° NNE 03:16:48 10° SE visible
24 Apr 8.4 05:12:48 10° NW 06:09:53 50° WSW 07:31:13 10° SSW visible
24 Apr 5.6 20:24:57 10° WSW 20:32:27 79° NNW 21:10:30 10° ENE visible
25 Apr 7.8 00:32:49 10° WNW 01:01:07 68° NNE 02:47:45 10° ESE visible
25 Apr 8.4 04:46:29 10° NW 05:43:03 55° WSW 07:07:11 10° S visible
25 Apr 5.3 20:00:13 10° SW 20:07:03 86° NW 20:40:25 10° NE visible
26 Apr 7.8 00:07:32 10° WNW 00:32:44 65° NNE 02:17:51 10° ESE visible
26 Apr 8.4 04:20:18 10° NW 05:15:50 59° WSW 06:42:43 10° S visible
26 Apr 5.0 19:35:28 10° SW 19:41:46 85° SE 20:10:59 10° NE visible
26 Apr 7.5 23:42:12 10° WNW 00:00:00 61° N 00:00:00 61° N visible
